Time,TemperatureF,DewpointF,PressureIn,WindDirection,WindDirectionDegrees,WindSpeedMPH,WindSpeedGustMPH,Humidity,HourlyPrecipIn,Conditions,Clouds,dailyrainin,SoftwareType,DateUTC
2013-06-04 00:01:00,67.5,65.1,29.92,ESE,113,0.0,0.0,92,0.00,,FEW060,0.00,VWS V14.01,2013-06-04 04:01:00,
2013-06-04 00:03:00,67.5,65.1,29.92,ESE,113,0.0,0.0,92,0.00,,FEW060,0.00,VWS V14.01,2013-06-04 04:03:00,
2013-06-04 00:04:00,67.5,65.1,29.92,ESE,113,0.0,0.0,92,0.00,,FEW060,0.00,VWS V14.01,2013-06-04 04:04:00,
2013-06-04 00:06:00,67.5,65.1,29.92,South,174,0.0,0.0,92,0.00,,FEW060,0.00,VWS V14.01,2013-06-04 04:06:00,
2013-06-04 00:12:00,67.5,65.4,29.93,South,174,0.0,0.0,93,0.00,,FEW060,0.00,VWS V14.01,2013-06-04 04:12:00,
2013-06-04 00:18:00,67.4,65.3,29.93,South,174,0.0,0.0,93,0.00,,FEW060,0.00,VWS V14.01,2013-06-04 04:18:00,
2013-06-04 00:23:00,67.2,65.1,29.93,South,174,0.0,0.0,93,0.00,,FEW060,0.00,VWS V14.01,2013-06-04 04:23:00,
2013-06-04 00:28:00,67.1,65.0,29.92,South,174,0.0,0.0,93,0.00,,FEW060,0.00,VWS V14.01,2013-06-04 04:28:00,
2013-06-04 00:33:00,66.9,64.8,29.93,South,174,0.0,0.0,93,0.00,,FEW060,0.00,VWS V14.01,2013-06-04 04:33:00,
2013-06-04 00:38:00,66.8,64.7,29.93,South,174,0.0,0.0,93,0.00,,FEW060,0.00,VWS V14.01,2013-06-04 04:38:00,
2013-06-04 00:43:00,66.7,64.6,29.93,South,174,0.0,0.0,93,0.00,,FEW060,0.00,VWS V14.01,2013-06-04 04:43:00,
2013-06-04 00:48:00,66.6,64.8,29.92,South,174,0.0,0.0,94,0.00,,FEW060,0.00,VWS V14.01,2013-06-04 04:48:00,
2013-06-04 00:53:00,66.6,64.8,29.93,South,174,0.0,0.0,94,0.00,,FEW060,0.00,VWS V14.01,2013-06-04 04:53:00,
2013-06-04 00:58:00,66.5,64.7,29.93,South,174,0.0,0.0,94,0.00,,FEW060,0.00,VWS V14.01,2013-06-04 04:58:00,
2013-06-04 01:03:00,66.5,64.7,29.92,South,174,0.0,0.0,94,0.00,,BKN100,0.00,VWS V14.01,2013-06-04 05:03:00,
2013-06-04 01:08:00,66.5,64.7,29.93,South,174,0.0,0.0,94,0.00,,BKN100,0.00,VWS V14.01,2013-06-04 05:08:00,
2013-06-04 01:13:00,66.5,64.7,29.93,South,174,0.0,0.0,94,0.00,,BKN100,0.00,VWS V14.01,2013-06-04 05:13:00,
2013-06-04 01:18:00,66.4,64.6,29.92,South,174,0.0,0.0,94,0.00,,BKN100,0.00,VWS V14.01,2013-06-04 05:18:00,
2013-06-04 01:23:00,66.5,64.7,29.93,South,174,0.0,0.0,94,0.00,,BKN100,0.00,VWS V14.01,2013-06-04 05:23:00,
2013-06-04 01:28:00,66.5,65.0,29.92,South,174,0.0,0.0,95,0.00,,BKN100,0.00,VWS V14.01,2013-06-04 05:28:00,
2013-06-04 01:33:00,66.6,65.1,29.92,South,174,0.0,0.0,95,0.00,,BKN100,0.00,VWS V14.01,2013-06-04 05:33:00,
2013-06-04 01:38:00,66.6,65.1,29.92,South,174,0.0,0.0,95,0.00,,BKN100,0.00,VWS V14.01,2013-06-04 05:38:00,
2013-06-04 01:43:00,66.6,65.1,29.92,South,174,0.0,0.0,95,0.00,,BKN100,0.00,VWS V14.01,2013-06-04 05:43:00,
2013-06-04 01:48:00,66.6,65.1,29.92,South,174,0.0,0.0,95,0.00,,BKN100,0.00,VWS V14.01,2013-06-04 05:48:00,
2013-06-04 01:53:00,66.6,65.1,29.92,South,174,0.0,0.0,95,0.00,,BKN100,0.00,VWS V14.01,2013-06-04 05:53:00,
2013-06-04 01:58:00,66.5,65.0,29.92,South,174,0.0,0.0,95,0.00,,BKN100,0.00,VWS V14.01,2013-06-04 05:58:00,
2013-06-04 02:03:00,66.5,65.0,29.91,South,174,0.0,0.0,95,0.00,,SCT031,0.00,VWS V14.01,2013-06-04 06:03:00,
2013-06-04 02:08:00,66.4,64.9,29.91,South,174,0.0,0.0,95,0.00,,SCT031,0.00,VWS V14.01,2013-06-04 06:08:00,
2013-06-04 02:13:00,66.4,64.9,29.91,South,174,0.0,0.0,95,0.00,,SCT031,0.00,VWS V14.01,2013-06-04 06:13:00,
2013-06-04 02:19:00,66.3,64.5,29.92,South,174,0.0,0.0,94,0.00,,SCT031,0.00,VWS V14.01,2013-06-04 06:19:00,
2013-06-04 02:24:00,66.2,64.4,29.92,South,174,0.0,0.0,94,0.00,,SCT031,0.00,VWS V14.01,2013-06-04 06:24:00,
2013-06-04 02:29:00,66.2,64.7,29.92,South,174,0.0,0.0,95,0.00,,SCT031,0.00,VWS V14.01,2013-06-04 06:29:00,
2013-06-04 02:34:00,66.1,64.6,29.91,South,174,0.0,0.0,95,0.00,,SCT031,0.00,VWS V14.01,2013-06-04 06:34:00,
2013-06-04 02:39:00,66.0,64.5,29.91,South,174,0.0,0.0,95,0.00,,SCT031,0.00,VWS V14.01,2013-06-04 06:39:00,
2013-06-04 02:44:00,66.0,64.5,29.91,South,174,0.0,0.0,95,0.00,,SCT031,0.00,VWS V14.01,2013-06-04 06:44:00,
2013-06-04 02:49:00,65.9,64.4,29.91,SSE,168,0.0,0.0,95,0.00,,SCT031,0.00,VWS V14.01,2013-06-04 06:49:00,
2013-06-04 02:54:00,65.8,64.3,29.92,SSE,168,0.0,0.0,95,0.00,,SCT031,0.00,VWS V14.01,2013-06-04 06:54:00,
2013-06-04 02:59:00,65.8,64.3,29.91,SSE,168,0.0,0.0,95,0.00,,SCT031,0.00,VWS V14.01,2013-06-04 06:59:00,
2013-06-04 03:04:00,65.8,64.3,29.91,SSE,168,0.0,0.0,95,0.00,,-RA,0.00,VWS V14.01,2013-06-04 07:04:00,
2013-06-04 03:09:00,65.8,64.3,29.92,SSE,168,0.0,0.0,95,0.00,,-RA,0.00,VWS V14.01,2013-06-04 07:09:00,
2013-06-04 03:14:00,65.7,64.2,29.92,SSE,168,0.0,0.0,95,0.00,,-RA,0.00,VWS V14.01,2013-06-04 07:14:00,
2013-06-04 03:19:00,65.8,64.3,29.91,SSE,168,0.0,0.0,95,0.00,,-RA,0.00,VWS V14.01,2013-06-04 07:19:00,
2013-06-04 03:24:00,65.8,64.3,29.91,SSE,168,0.0,0.0,95,0.00,,-RA,0.00,VWS V14.01,2013-06-04 07:24:00,
2013-06-04 03:29:00,65.8,64.3,29.91,SSE,168,0.0,0.0,95,0.00,,-RA,0.00,VWS V14.01,2013-06-04 07:29:00,
2013-06-04 03:34:00,65.8,64.3,29.91,SSE,168,0.0,0.0,95,0.00,,-RA,0.00,VWS V14.01,2013-06-04 07:34:00,
2013-06-04 03:39:00,65.7,64.2,29.91,SSE,168,0.0,0.0,95,0.00,,-RA,0.00,VWS V14.01,2013-06-04 07:39:00,
2013-06-04 03:44:00,65.8,64.6,29.91,SSE,168,0.0,0.0,96,0.00,,-RA,0.00,VWS V14.01,2013-06-04 07:44:00,
2013-06-04 03:49:00,65.9,64.7,29.90,SSE,168,0.0,0.0,96,0.00,,-RA,0.00,VWS V14.01,2013-06-04 07:49:00,
2013-06-04 03:54:00,65.8,64.3,29.91,SSE,168,0.0,0.0,95,0.00,,-RA,0.00,VWS V14.01,2013-06-04 07:54:00,
2013-06-04 03:59:00,65.8,64.3,29.91,SSE,168,0.0,0.0,95,0.00,,-RA,0.00,VWS V14.01,2013-06-04 07:59:00,
2013-06-04 04:04:00,65.8,64.6,29.91,SSE,168,0.0,0.0,96,0.00,,OVC095,0.00,VWS V14.01,2013-06-04 08:04:00,
2013-06-04 04:09:00,65.8,64.6,29.91,SSE,168,0.0,0.0,96,0.00,,OVC095,0.00,VWS V14.01,2013-06-04 08:09:00,
2013-06-04 04:14:00,65.9,64.7,29.91,SSE,168,0.0,0.0,96,0.00,,OVC095,0.00,VWS V14.01,2013-06-04 08:14:00,
2013-06-04 04:19:00,65.9,64.7,29.91,SSE,168,0.0,0.0,96,0.00,,OVC095,0.00,VWS V14.01,2013-06-04 08:19:00,
2013-06-04 04:24:00,65.9,64.7,29.91,SSE,168,0.0,0.0,96,0.00,,OVC095,0.00,VWS V14.01,2013-06-04 08:24:00,
2013-06-04 04:29:00,66.0,64.8,29.91,SSE,168,0.0,0.0,96,0.00,,OVC095,0.00,VWS V14.01,2013-06-04 08:29:00,
2013-06-04 04:34:00,66.0,64.8,29.91,SSE,168,0.0,0.0,96,0.00,,OVC034,0.00,VWS V14.01,2013-06-04 08:34:00,
2013-06-04 04:39:00,66.1,64.9,29.91,SSE,168,0.0,0.0,96,0.00,,OVC034,0.00,VWS V14.01,2013-06-04 08:39:00,
2013-06-04 04:44:00,66.1,64.9,29.91,SSE,168,0.0,0.0,96,0.00,,OVC034,0.00,VWS V14.01,2013-06-04 08:44:00,
2013-06-04 04:49:00,66.1,64.9,29.91,SSE,168,0.0,0.0,96,0.00,,OVC034,0.00,VWS V14.01,2013-06-04 08:49:00,
2013-06-04 04:54:00,66.1,64.6,29.91,SSE,168,0.0,0.0,95,0.00,,OVC034,0.00,VWS V14.01,2013-06-04 08:54:00,
2013-06-04 04:59:00,66.1,64.6,29.92,SSE,168,0.0,0.0,95,0.00,,OVC034,0.00,VWS V14.01,2013-06-04 08:59:00,
2013-06-04 05:04:00,66.1,64.6,29.92,SSE,168,0.0,0.0,95,0.00,,OVC034,0.00,VWS V14.01,2013-06-04 09:04:00,
2013-06-04 05:09:00,66.2,64.7,29.92,SSE,168,0.0,0.0,95,0.00,,OVC034,0.00,VWS V14.01,2013-06-04 09:09:00,
2013-06-04 05:14:00,66.4,64.9,29.92,SSE,168,0.0,0.0,95,0.00,,OVC034,0.00,VWS V14.01,2013-06-04 09:14:00,
2013-06-04 05:19:00,66.5,65.0,29.92,SSE,168,0.0,0.0,95,0.00,,OVC034,0.00,VWS V14.01,2013-06-04 09:19:00,
2013-06-04 05:24:00,66.9,65.1,29.93,SSE,168,0.0,0.0,94,0.00,,OVC034,0.00,VWS V14.01,2013-06-04 09:24:00,
2013-06-04 05:29:00,67.1,65.3,29.93,SSE,168,0.0,0.0,94,0.00,,OVC034,0.00,VWS V14.01,2013-06-04 09:29:00,
2013-06-04 05:34:00,67.3,65.2,29.92,SSE,168,0.0,0.0,93,0.00,,OVC034,0.00,VWS V14.01,2013-06-04 09:34:00,
2013-06-04 05:39:00,67.5,65.1,29.93,SSE,168,0.0,0.0,92,0.00,,OVC034,0.00,VWS V14.01,2013-06-04 09:39:00,
2013-06-04 05:44:00,67.5,65.1,29.93,SSE,168,0.0,0.0,92,0.00,,OVC034,0.00,VWS V14.01,2013-06-04 09:44:00,
2013-06-04 05:49:00,67.4,65.0,29.93,SSE,168,0.0,0.0,92,0.00,,OVC034,0.00,VWS V14.01,2013-06-04 09:49:00,
2013-06-04 05:54:00,67.4,65.0,29.93,SSE,168,0.0,0.0,92,0.00,,OVC034,0.00,VWS V14.01,2013-06-04 09:54:00,
2013-06-04 05:59:00,67.3,64.9,29.93,SSE,168,0.0,0.0,92,0.00,,OVC034,0.00,VWS V14.01,2013-06-04 09:59:00,
2013-06-04 06:04:00,67.2,64.8,29.93,SSE,168,0.0,0.0,92,0.00,,BKN100,0.00,VWS V14.01,2013-06-04 10:04:00,
2013-06-04 06:09:00,67.1,64.7,29.93,SSE,167,0.0,0.0,92,0.00,,BKN100,0.00,VWS V14.01,2013-06-04 10:09:00,
2013-06-04 06:14:00,67.1,65.0,29.93,SSE,167,0.0,0.0,93,0.00,,BKN100,0.00,VWS V14.01,2013-06-04 10:14:00,
2013-06-04 06:19:00,67.0,64.9,29.93,East,91,0.0,0.0,93,0.00,,BKN100,0.00,VWS V14.01,2013-06-04 10:19:00,
2013-06-04 06:24:00,67.0,65.2,29.94,East,91,0.0,0.0,94,0.00,,BKN100,0.00,VWS V14.01,2013-06-04 10:24:00,
2013-06-04 06:29:00,66.9,64.8,29.94,East,91,0.0,0.0,93,0.00,,BKN100,0.00,VWS V14.01,2013-06-04 10:29:00,
2013-06-04 06:34:00,66.9,64.8,29.94,ESE,105,0.0,0.0,93,0.00,,BKN100,0.00,VWS V14.01,2013-06-04 10:34:00,
2013-06-04 06:39:00,66.9,64.8,29.94,ESE,108,0.0,0.0,93,0.00,,BKN100,0.00,VWS V14.01,2013-06-04 10:39:00,
2013-06-04 06:44:00,67.1,65.0,29.95,ESE,108,0.0,0.0,93,0.00,,BKN100,0.00,VWS V14.01,2013-06-04 10:44:00,
2013-06-04 06:49:00,67.3,65.2,29.95,ESE,108,0.0,0.0,93,0.00,,BKN100,0.00,VWS V14.01,2013-06-04 10:49:00,
2013-06-04 06:54:00,67.4,65.3,29.95,ESE,108,0.0,0.0,93,0.00,,BKN100,0.00,VWS V14.01,2013-06-04 10:54:00,
2013-06-04 06:59:00,67.5,65.4,29.96,ESE,108,0.0,0.0,93,0.00,,BKN100,0.00,VWS V14.01,2013-06-04 10:59:00,
2013-06-04 07:04:00,67.6,65.5,29.95,WSW,237,0.0,0.0,93,0.00,,BKN050,0.00,VWS V14.01,2013-06-04 11:04:00,
2013-06-04 07:09:00,67.6,65.2,29.96,WSW,237,0.0,0.0,92,0.00,,BKN050,0.00,VWS V14.01,2013-06-04 11:09:00,
2013-06-04 07:14:00,67.7,65.3,29.95,WSW,237,0.0,0.0,92,0.00,,BKN050,0.00,VWS V14.01,2013-06-04 11:14:00,
2013-06-04 07:19:00,67.7,65.3,29.95,WSW,237,0.0,0.0,92,0.00,,BKN050,0.00,VWS V14.01,2013-06-04 11:19:00,
2013-06-04 07:24:00,67.9,65.8,29.96,WSW,237,0.0,0.0,93,0.00,,BKN050,0.00,VWS V14.01,2013-06-04 11:24:00,
2013-06-04 07:29:00,68.2,65.8,29.96,ENE,59,0.0,0.0,92,0.00,,BKN050,0.00,VWS V14.01,2013-06-04 11:29:00,
2013-06-04 07:34:00,68.5,66.1,29.96,ENE,63,0.0,0.0,92,0.00,,BKN050,0.00,VWS V14.01,2013-06-04 11:34:00,
2013-06-04 07:39:00,68.9,66.2,29.96,ENE,63,0.0,0.0,91,0.00,,BKN050,0.00,VWS V14.01,2013-06-04 11:39:00,
2013-06-04 07:44:00,69.1,66.4,29.96,SE,137,0.0,0.0,91,0.00,,BKN050,0.00,VWS V14.01,2013-06-04 11:44:00,
2013-06-04 07:49:00,69.2,66.5,29.97,SSE,165,0.0,0.0,91,0.00,,BKN050,0.00,VWS V14.01,2013-06-04 11:49:00,
2013-06-04 07:54:00,69.5,66.4,29.97,SSE,165,0.0,0.0,90,0.00,,BKN050,0.00,VWS V14.01,2013-06-04 11:54:00,
2013-06-04 07:59:00,69.9,66.5,29.97,SSE,165,0.0,0.0,89,0.00,,BKN050,0.00,VWS V14.01,2013-06-04 11:59:00,
2013-06-04 08:04:00,70.2,66.5,29.97,SSE,165,0.0,0.0,88,0.00,,SCT140,0.00,VWS V14.01,2013-06-04 12:04:00,
2013-06-04 08:09:00,70.6,66.9,29.97,SSE,165,0.0,0.0,88,0.00,,SCT140,0.00,VWS V14.01,2013-06-04 12:09:00,
2013-06-04 08:14:00,71.0,66.6,29.97,ENE,59,0.0,0.0,86,0.00,,SCT140,0.00,VWS V14.01,2013-06-04 12:14:00,
2013-06-04 08:19:00,71.5,66.8,29.97,ENE,59,0.0,0.0,85,0.00,,SCT140,0.00,VWS V14.01,2013-06-04 12:19:00,
2013-06-04 08:24:00,71.8,67.4,29.97,ENE,71,0.0,0.0,86,0.00,,SCT140,0.00,VWS V14.01,2013-06-04 12:24:00,
2013-06-04 08:29:00,71.9,67.2,29.97,ENE,71,0.0,0.0,85,0.00,,SCT140,0.00,VWS V14.01,2013-06-04 12:29:00,
2013-06-04 08:34:00,71.9,66.8,29.97,SSE,168,1.0,0.0,84,0.00,,SCT140,0.00,VWS V14.01,2013-06-04 12:34:00,
2013-06-04 08:39:00,71.8,66.4,29.97,NE,41,1.0,0.0,83,0.00,,SCT140,0.00,VWS V14.01,2013-06-04 12:39:00,
2013-06-04 08:44:00,71.7,65.6,29.98,South,185,0.0,0.0,81,0.00,,SCT140,0.00,VWS V14.01,2013-06-04 12:44:00,
2013-06-04 08:49:00,71.8,65.7,29.98,ESE,120,4.0,0.0,81,0.00,,SCT140,0.00,VWS V14.01,2013-06-04 12:49:00,
2013-06-04 08:54:00,72.0,66.2,29.98,SSW,203,1.0,0.0,82,0.00,,SCT140,0.00,VWS V14.01,2013-06-04 12:54:00,
2013-06-04 08:59:00,72.0,65.9,29.98,East,95,0.0,0.0,81,0.00,,SCT140,0.00,VWS V14.01,2013-06-04 12:59:00,
2013-06-04 09:04:00,72.2,65.3,29.98,SSW,212,0.0,0.0,79,0.00,,BKN090,0.00,VWS V14.01,2013-06-04 13:04:00,
2013-06-04 09:09:00,72.5,66.0,29.98,South,180,0.0,0.0,80,0.00,,BKN090,0.00,VWS V14.01,2013-06-04 13:09:00,
2013-06-04 09:14:00,72.9,65.7,29.98,SSW,206,0.0,0.0,78,0.00,,BKN090,0.00,VWS V14.01,2013-06-04 13:14:00,
2013-06-04 09:19:00,73.4,66.1,29.98,SSW,207,0.0,0.0,78,0.00,,BKN090,0.00,VWS V14.01,2013-06-04 13:19:00,
2013-06-04 09:24:00,73.5,65.5,29.99,SSW,207,1.0,0.0,76,0.00,,BKN090,0.00,VWS V14.01,2013-06-04 13:24:00,
2013-06-04 09:29:00,73.6,66.3,29.99,SSW,202,0.0,0.0,78,0.00,,BKN090,0.00,VWS V14.01,2013-06-04 13:29:00,
2013-06-04 09:34:00,74.0,66.3,29.98,SE,140,2.0,0.0,77,0.00,,BKN090,0.00,VWS V14.01,2013-06-04 13:34:00,
2013-06-04 09:39:00,74.4,66.3,29.99,NNE,17,0.0,0.0,76,0.00,,BKN090,0.00,VWS V14.01,2013-06-04 13:39:00,
2013-06-04 09:44:00,74.8,66.3,29.99,South,174,0.0,0.0,75,0.00,,BKN090,0.00,VWS V14.01,2013-06-04 13:44:00,
2013-06-04 09:49:00,74.8,66.3,29.99,North,355,1.0,0.0,75,0.00,,BKN090,0.00,VWS V14.01,2013-06-04 13:49:00,
2013-06-04 09:54:00,74.6,65.8,30.00,West,269,0.0,0.0,74,0.00,,BKN090,0.00,VWS V14.01,2013-06-04 13:54:00,
2013-06-04 09:59:00,74.5,66.1,30.00,ESE,114,1.0,0.0,75,0.00,,BKN090,0.00,VWS V14.01,2013-06-04 13:59:00,
2013-06-04 10:04:00,74.3,65.9,29.99,South,178,1.0,0.0,75,0.00,,SCT250,0.00,VWS V14.01,2013-06-04 14:04:00,
2013-06-04 10:09:00,74.2,66.2,30.00,South,186,1.0,0.0,76,0.00,,SCT250,0.00,VWS V14.01,2013-06-04 14:09:00,
2013-06-04 10:14:00,74.3,66.2,29.99,South,187,2.0,0.0,76,0.00,,SCT250,0.00,VWS V14.01,2013-06-04 14:14:00,
2013-06-04 10:19:00,74.3,66.6,29.99,SSE,150,0.0,0.0,77,0.00,,SCT250,0.00,VWS V14.01,2013-06-04 14:19:00,
2013-06-04 10:24:00,74.8,67.5,29.99,SSE,149,0.0,0.0,78,0.00,,SCT250,0.00,VWS V14.01,2013-06-04 14:24:00,
2013-06-04 10:29:00,74.8,66.7,29.99,South,185,1.0,0.0,76,0.00,,SCT250,0.00,VWS V14.01,2013-06-04 14:29:00,
2013-06-04 10:34:00,75.0,67.3,29.99,NE,53,1.0,0.0,77,0.00,,SCT250,0.00,VWS V14.01,2013-06-04 14:34:00,
2013-06-04 10:39:00,75.3,67.6,29.99,ESE,123,1.0,0.0,77,0.00,,SCT250,0.00,VWS V14.01,2013-06-04 14:39:00,
2013-06-04 10:44:00,75.5,68.2,30.00,North,355,1.0,0.0,78,0.00,,SCT250,0.00,VWS V14.01,2013-06-04 14:44:00,
2013-06-04 10:49:00,75.5,67.4,29.99,NNE,17,1.0,0.0,76,0.00,,SCT250,0.00,VWS V14.01,2013-06-04 14:49:00,
2013-06-04 10:54:00,75.3,66.8,30.00,SSE,152,0.0,0.0,75,0.00,,SCT250,0.00,VWS V14.01,2013-06-04 14:54:00,
2013-06-04 10:59:00,75.8,67.7,30.00,South,173,0.0,0.0,76,0.00,,SCT250,0.00,VWS V14.01,2013-06-04 14:59:00,
2013-06-04 11:04:00,76.3,67.8,30.00,SSW,196,0.0,0.0,75,0.00,,SCT250,0.00,VWS V14.01,2013-06-04 15:04:00,
2013-06-04 11:09:00,76.6,67.7,29.99,ESE,122,0.0,0.0,74,0.00,,SCT250,0.00,VWS V14.01,2013-06-04 15:09:00,
2013-06-04 11:14:00,76.9,68.4,30.00,ENE,67,3.0,0.0,75,0.00,,SCT250,0.00,VWS V14.01,2013-06-04 15:14:00,
2013-06-04 11:19:00,77.3,66.8,30.00,South,169,3.0,0.0,70,0.00,,SCT250,0.00,VWS V14.01,2013-06-04 15:19:00,
2013-06-04 11:24:00,77.5,68.2,30.00,SSE,152,0.0,0.0,73,0.00,,SCT250,0.00,VWS V14.01,2013-06-04 15:24:00,
2013-06-04 11:29:00,77.6,67.5,30.00,NW,326,0.0,0.0,71,0.00,,SCT250,0.00,VWS V14.01,2013-06-04 15:29:00,
2013-06-04 11:34:00,77.4,68.1,30.00,SE,135,0.0,0.0,73,0.00,,SCT250,0.00,VWS V14.01,2013-06-04 15:34:00,
2013-06-04 11:39:00,77.2,68.7,30.01,SE,141,0.0,0.0,75,0.00,,SCT250,0.00,VWS V14.01,2013-06-04 15:39:00,
2013-06-04 11:44:00,77.0,68.9,30.01,SE,134,0.0,0.0,76,0.00,,SCT250,0.00,VWS V14.01,2013-06-04 15:44:00,
2013-06-04 11:50:00,76.9,68.4,30.01,SE,128,0.0,0.0,75,0.00,,SCT250,0.00,VWS V14.01,2013-06-04 15:50:00,
2013-06-04 11:55:00,76.8,68.7,30.01,ENE,77,0.0,0.0,76,0.00,,SCT250,0.00,VWS V14.01,2013-06-04 15:55:00,
2013-06-04 12:00:00,76.6,67.7,30.01,SSE,167,1.0,0.0,74,0.00,,SCT250,0.00,VWS V14.01,2013-06-04 16:00:00,
2013-06-04 12:05:00,76.4,67.5,30.01,SW,227,0.0,0.0,74,0.00,,SCT035,0.00,VWS V14.01,2013-06-04 16:05:00,
2013-06-04 12:10:00,76.4,68.3,30.01,SW,229,0.0,0.0,76,0.00,,SCT035,0.00,VWS V14.01,2013-06-04 16:10:00,
2013-06-04 12:15:00,76.9,68.4,30.01,South,175,0.0,0.0,75,0.00,,SCT035,0.00,VWS V14.01,2013-06-04 16:15:00,
2013-06-04 12:20:00,77.6,69.4,30.01,SW,221,0.0,0.0,76,0.00,,SCT035,0.00,VWS V14.01,2013-06-04 16:20:00,
2013-06-04 12:25:00,77.9,68.6,30.01,ESE,117,2.0,0.0,73,0.00,,SCT035,0.00,VWS V14.01,2013-06-04 16:25:00,
2013-06-04 12:30:00,78.3,67.7,30.01,SSE,154,0.0,0.0,70,0.00,,SCT035,0.00,VWS V14.01,2013-06-04 16:30:00,
2013-06-04 12:35:00,78.4,68.6,30.01,SW,220,1.0,0.0,72,0.00,,SCT035,0.00,VWS V14.01,2013-06-04 16:35:00,
2013-06-04 12:40:00,78.1,69.5,30.01,ESE,107,0.0,0.0,75,0.00,,SCT035,0.00,VWS V14.01,2013-06-04 16:40:00,
2013-06-04 12:45:00,78.3,69.3,30.01,ESE,115,0.0,0.0,74,0.00,,SCT035,0.00,VWS V14.01,2013-06-04 16:45:00,
2013-06-04 12:50:00,78.6,67.2,30.00,WSW,257,1.0,0.0,68,0.00,,SCT035,0.00,VWS V14.01,2013-06-04 16:50:00,
2013-06-04 12:55:00,79.1,67.6,30.00,SSE,160,3.0,0.0,68,0.00,,SCT035,0.00,VWS V14.01,2013-06-04 16:55:00,
2013-06-04 13:00:00,79.6,67.2,30.00,East,93,0.0,0.0,66,0.00,,SCT035,0.00,VWS V14.01,2013-06-04 17:00:00,
2013-06-04 13:05:00,80.2,67.8,30.00,East,79,1.0,0.0,66,0.00,,BKN040,0.00,VWS V14.01,2013-06-04 17:05:00,
2013-06-04 13:10:00,80.5,67.2,29.99,ENE,61,1.0,0.0,64,0.00,,BKN040,0.00,VWS V14.01,2013-06-04 17:10:00,
2013-06-04 13:15:00,80.7,67.4,29.99,South,188,0.0,0.0,64,0.00,,BKN040,0.00,VWS V14.01,2013-06-04 17:15:00,
2013-06-04 13:20:00,80.5,67.7,29.99,South,182,1.0,0.0,65,0.00,,BKN040,0.00,VWS V14.01,2013-06-04 17:20:00,
2013-06-04 13:25:00,80.2,67.8,29.99,South,184,2.0,0.0,66,0.00,,BKN040,0.00,VWS V14.01,2013-06-04 17:25:00,
2013-06-04 13:30:00,80.2,69.5,29.99,SSW,195,0.0,0.0,70,0.00,,BKN040,0.00,VWS V14.01,2013-06-04 17:30:00,
2013-06-04 13:35:00,80.1,68.2,29.99,SSE,160,0.0,0.0,67,0.00,,BKN040,0.00,VWS V14.01,2013-06-04 17:35:00,
2013-06-04 13:40:00,80.1,68.2,29.99,SE,126,0.0,0.0,67,0.00,,BKN040,0.00,VWS V14.01,2013-06-04 17:40:00,
2013-06-04 13:45:00,80.0,68.9,29.99,SSE,150,0.0,0.0,69,0.00,,BKN040,0.00,VWS V14.01,2013-06-04 17:45:00,
2013-06-04 13:50:00,79.9,68.4,29.99,SSE,165,1.0,0.0,68,0.00,,BKN040,0.00,VWS V14.01,2013-06-04 17:50:00,
2013-06-04 13:55:00,79.7,69.5,29.99,South,174,0.0,0.0,71,0.00,,BKN040,0.00,VWS V14.01,2013-06-04 17:55:00,
2013-06-04 14:00:00,79.5,68.0,29.99,ENE,67,1.0,0.0,68,0.00,,BKN040,0.00,VWS V14.01,2013-06-04 18:00:00,
2013-06-04 14:05:00,79.3,69.5,29.99,SE,125,0.0,0.0,72,0.00,,BKN075,0.00,VWS V14.01,2013-06-04 18:05:00,
2013-06-04 14:10:00,79.2,69.0,29.99,SE,134,1.0,0.0,71,0.00,,BKN075,0.00,VWS V14.01,2013-06-04 18:10:00,
2013-06-04 14:15:00,79.6,68.5,29.98,East,88,0.0,0.0,69,0.00,,BKN075,0.00,VWS V14.01,2013-06-04 18:15:00,
2013-06-04 14:20:00,80.1,68.6,29.98,ESE,106,1.0,0.0,68,0.00,,BKN075,0.00,VWS V14.01,2013-06-04 18:20:00,
2013-06-04 14:25:00,80.0,68.1,29.98,ESE,123,0.0,0.0,67,0.00,,BKN075,0.00,VWS V14.01,2013-06-04 18:25:00,
2013-06-04 14:30:00,79.6,67.7,29.98,SE,136,0.0,0.0,67,0.00,,BKN075,0.00,VWS V14.01,2013-06-04 18:30:00,
2013-06-04 14:35:00,78.9,68.3,29.98,ESE,117,1.0,0.0,70,0.00,,BKN075,0.00,VWS V14.01,2013-06-04 18:35:00,
2013-06-04 14:40:00,78.1,67.1,29.98,ESE,117,0.0,0.0,69,0.00,,BKN075,0.00,VWS V14.01,2013-06-04 18:40:00,
2013-06-04 14:45:00,77.6,67.9,29.97,ESE,118,0.0,0.0,72,0.00,,BKN075,0.00,VWS V14.01,2013-06-04 18:45:00,
2013-06-04 14:50:00,77.3,68.0,29.97,South,180,0.0,0.0,73,0.00,,BKN075,0.00,VWS V14.01,2013-06-04 18:50:00,
2013-06-04 14:55:00,77.3,67.6,29.97,WSW,244,0.0,0.0,72,0.00,,BKN075,0.00,VWS V14.01,2013-06-04 18:55:00,
2013-06-04 15:00:00,77.5,67.8,29.97,SSE,153,0.0,0.0,72,0.00,,BKN075,0.00,VWS V14.01,2013-06-04 19:00:00,
2013-06-04 15:05:00,77.6,68.3,29.97,ESE,106,0.0,0.0,73,0.00,,BKN045,0.00,VWS V14.01,2013-06-04 19:05:00,
2013-06-04 15:10:00,77.9,68.6,29.97,SE,137,0.0,0.0,73,0.00,,BKN045,0.00,VWS V14.01,2013-06-04 19:10:00,
2013-06-04 15:15:00,78.1,68.8,29.98,SSW,213,0.0,0.0,73,0.00,,BKN045,0.00,VWS V14.01,2013-06-04 19:15:00,
2013-06-04 15:20:00,78.3,68.1,29.98,South,186,0.0,0.0,71,0.00,,BKN045,0.00,VWS V14.01,2013-06-04 19:20:00,
2013-06-04 15:25:00,78.6,68.0,29.97,South,182,2.0,0.0,70,0.00,,BKN045,0.00,VWS V14.01,2013-06-04 19:25:00,
2013-06-04 15:30:00,79.2,68.6,29.97,SE,143,1.0,0.0,70,0.00,,BKN045,0.00,VWS V14.01,2013-06-04 19:30:00,
2013-06-04 15:35:00,79.8,68.3,29.97,South,171,2.0,0.0,68,0.00,,BKN045,0.00,VWS V14.01,2013-06-04 19:35:00,
2013-06-04 15:40:00,80.1,69.4,29.97,SSE,161,0.0,0.0,70,0.00,,BKN045,0.00,VWS V14.01,2013-06-04 19:40:00,
2013-06-04 15:45:00,80.4,68.0,29.97,NNW,333,0.0,0.0,66,0.00,,BKN045,0.00,VWS V14.01,2013-06-04 19:45:00,
2013-06-04 15:50:00,80.6,69.5,29.97,ESE,116,0.0,0.0,69,0.00,,BKN045,0.00,VWS V14.01,2013-06-04 19:50:00,
2013-06-04 15:55:00,80.5,70.2,29.97,SW,230,0.0,0.0,71,0.00,,BKN045,0.00,VWS V14.01,2013-06-04 19:55:00,
2013-06-04 16:00:00,79.9,69.2,29.97,ENE,67,0.0,0.0,70,0.00,,BKN045,0.00,VWS V14.01,2013-06-04 20:00:00,
2013-06-04 16:05:00,79.3,69.5,29.97,SE,124,0.0,0.0,72,0.00,,BKN048,0.00,VWS V14.01,2013-06-04 20:05:00,
2013-06-04 16:10:00,79.0,68.4,29.97,SE,125,0.0,0.0,70,0.00,,BKN048,0.00,VWS V14.01,2013-06-04 20:10:00,
2013-06-04 16:15:00,79.0,69.2,29.97,SE,139,0.0,0.0,72,0.00,,BKN048,0.00,VWS V14.01,2013-06-04 20:15:00,
2013-06-04 16:20:00,78.8,69.4,29.97,ESE,103,0.0,0.0,73,0.00,,BKN048,0.00,VWS V14.01,2013-06-04 20:20:00,
2013-06-04 16:25:00,78.7,68.9,29.97,South,172,0.0,0.0,72,0.00,,BKN048,0.00,VWS V14.01,2013-06-04 20:25:00,
2013-06-04 16:30:00,78.7,67.7,29.97,NE,55,0.0,0.0,69,0.00,,BKN048,0.00,VWS V14.01,2013-06-04 20:30:00,
2013-06-04 16:35:00,79.2,67.3,29.97,South,186,1.0,0.0,67,0.00,,BKN048,0.00,VWS V14.01,2013-06-04 20:35:00,
2013-06-04 16:40:00,79.6,69.0,29.97,SSE,165,0.0,0.0,70,0.00,,BKN048,0.00,VWS V14.01,2013-06-04 20:40:00,
2013-06-04 16:45:00,79.8,69.2,29.97,SE,146,0.0,0.0,70,0.00,,BKN048,0.00,VWS V14.01,2013-06-04 20:45:00,
2013-06-04 16:50:00,80.0,69.3,29.97,WNW,294,0.0,0.0,70,0.00,,BKN048,0.00,VWS V14.01,2013-06-04 20:50:00,
2013-06-04 16:55:00,80.1,68.2,29.97,WSW,251,0.0,0.0,67,0.00,,BKN048,0.00,VWS V14.01,2013-06-04 20:55:00,
2013-06-04 17:00:00,79.9,68.4,29.97,SSE,148,0.0,0.0,68,0.00,,BKN085,0.00,VWS V14.01,2013-06-04 21:00:00,
2013-06-04 17:05:00,80.0,68.1,29.97,SSE,153,0.0,0.0,67,0.00,,BKN085,0.00,VWS V14.01,2013-06-04 21:05:00,
2013-06-04 17:10:00,79.9,67.1,29.96,ENE,76,0.0,0.0,65,0.00,,BKN085,0.00,VWS V14.01,2013-06-04 21:10:00,
2013-06-04 17:15:00,79.7,68.2,29.96,SSW,206,0.0,0.0,68,0.00,,BKN085,0.00,VWS V14.01,2013-06-04 21:15:00,
2013-06-04 17:20:00,79.5,68.0,29.96,SE,127,1.0,0.0,68,0.00,,BKN085,0.00,VWS V14.01,2013-06-04 21:20:00,
2013-06-04 17:25:00,79.3,68.3,29.96,SSW,198,0.0,0.0,69,0.00,,BKN085,0.00,VWS V14.01,2013-06-04 21:25:00,
2013-06-04 17:30:00,79.2,68.6,29.96,SSW,205,0.0,0.0,70,0.00,,BKN085,0.00,VWS V14.01,2013-06-04 21:30:00,
2013-06-04 17:35:00,79.0,68.0,29.96,South,176,0.0,0.0,69,0.00,,BKN085,0.00,VWS V14.01,2013-06-04 21:35:00,
2013-06-04 17:40:00,78.9,68.3,29.96,ESE,118,0.0,0.0,70,0.00,,BKN085,0.00,VWS V14.01,2013-06-04 21:40:00,
2013-06-04 17:45:00,79.0,68.0,29.96,South,182,0.0,0.0,69,0.00,,BKN085,0.00,VWS V14.01,2013-06-04 21:45:00,
2013-06-04 17:50:00,79.2,68.2,29.96,South,179,0.0,0.0,69,0.00,,BKN085,0.00,VWS V14.01,2013-06-04 21:50:00,
2013-06-04 17:55:00,79.3,68.3,29.95,SSW,202,1.0,0.0,69,0.00,,BKN085,0.00,VWS V14.01,2013-06-04 21:55:00,
2013-06-04 18:00:00,79.3,67.8,29.96,SSW,210,0.0,0.0,68,0.00,,BKN085,0.00,VWS V14.01,2013-06-04 22:00:00,
2013-06-04 18:05:00,79.4,68.8,29.96,South,171,4.0,0.0,70,0.00,,BKN075,0.00,VWS V14.01,2013-06-04 22:05:00,
2013-06-04 18:10:00,79.4,69.2,29.96,SSE,163,0.0,0.0,71,0.00,,BKN075,0.00,VWS V14.01,2013-06-04 22:10:00,
2013-06-04 18:15:00,79.2,68.6,29.96,SSE,160,2.0,0.0,70,0.00,,BKN075,0.00,VWS V14.01,2013-06-04 22:15:00,
2013-06-04 18:20:00,79.3,68.7,29.96,WSW,237,1.0,0.0,70,0.00,,BKN075,0.00,VWS V14.01,2013-06-04 22:20:00,
2013-06-04 18:25:00,79.4,67.9,29.96,ENE,74,0.0,0.0,68,0.00,,BKN075,0.00,VWS V14.01,2013-06-04 22:25:00,
2013-06-04 18:30:00,79.3,68.3,29.96,ENE,77,0.0,0.0,69,0.00,,BKN075,0.00,VWS V14.01,2013-06-04 22:30:00,
2013-06-04 18:35:00,79.2,67.7,29.96,SE,130,0.0,0.0,68,0.00,,BKN075,0.00,VWS V14.01,2013-06-04 22:35:00,
2013-06-04 18:40:00,79.1,68.1,29.96,SSW,206,0.0,0.0,69,0.00,,BKN075,0.00,VWS V14.01,2013-06-04 22:40:00,
2013-06-04 18:45:00,78.8,67.8,29.96,SSE,161,0.0,0.0,69,0.00,,BKN075,0.00,VWS V14.01,2013-06-04 22:45:00,
2013-06-04 18:50:00,78.7,67.7,29.96,SSE,162,0.0,0.0,69,0.00,,BKN075,0.00,VWS V14.01,2013-06-04 22:50:00,
2013-06-04 18:55:00,78.7,68.1,29.96,South,188,0.0,0.0,70,0.00,,BKN075,0.00,VWS V14.01,2013-06-04 22:55:00,
2013-06-04 19:00:00,78.5,67.9,29.96,East,79,0.0,0.0,70,0.00,,BKN065,0.00,VWS V14.01,2013-06-04 23:00:00,
2013-06-04 19:05:00,78.5,67.9,29.97,SE,131,0.0,0.0,70,0.00,,BKN065,0.00,VWS V14.01,2013-06-04 23:05:00,
2013-06-04 19:10:00,78.6,68.0,29.97,SSE,165,1.0,0.0,70,0.00,,BKN065,0.00,VWS V14.01,2013-06-04 23:10:00,
2013-06-04 19:15:00,78.6,68.4,29.97,South,180,0.0,0.0,71,0.00,,BKN065,0.00,VWS V14.01,2013-06-04 23:15:00,
2013-06-04 19:20:00,78.5,68.7,29.97,South,180,0.0,0.0,72,0.00,,BKN065,0.00,VWS V14.01,2013-06-04 23:20:00,
2013-06-04 19:25:00,78.3,68.5,29.97,North,9,0.0,0.0,72,0.00,,BKN065,0.00,VWS V14.01,2013-06-04 23:25:00,
2013-06-04 19:30:00,78.1,67.9,29.98,SE,124,0.0,0.0,71,0.00,,BKN065,0.00,VWS V14.01,2013-06-04 23:30:00,
2013-06-04 19:35:00,77.9,68.2,29.98,SE,146,0.0,0.0,72,0.00,,BKN065,0.00,VWS V14.01,2013-06-04 23:35:00,
2013-06-04 19:40:00,77.7,68.0,29.98,ESE,102,0.0,0.0,72,0.00,,BKN065,0.00,VWS V14.01,2013-06-04 23:40:00,
2013-06-04 19:45:00,77.6,68.3,29.98,SSE,155,2.0,0.0,73,0.00,,BKN065,0.00,VWS V14.01,2013-06-04 23:45:00,
2013-06-04 19:50:00,77.4,68.1,29.98,SSE,148,0.0,0.0,73,0.00,,BKN065,0.00,VWS V14.01,2013-06-04 23:50:00,
2013-06-04 19:55:00,77.3,68.4,29.99,SSW,203,0.0,0.0,74,0.00,,BKN065,0.00,VWS V14.01,2013-06-04 23:55:00,
2013-06-04 20:00:00,77.0,68.1,29.99,SSE,153,0.0,0.0,74,0.00,,BKN180,0.00,VWS V14.01,2013-06-05 00:00:00,
2013-06-04 20:05:00,76.8,67.9,29.99,WSW,250,0.0,0.0,74,0.00,,BKN180,0.00,VWS V14.01,2013-06-05 00:05:00,
2013-06-04 20:10:00,76.6,67.7,29.99,SE,142,0.0,0.0,74,0.00,,BKN180,0.00,VWS V14.01,2013-06-05 00:10:00,
2013-06-04 20:15:00,76.4,67.5,29.99,NE,53,0.0,0.0,74,0.00,,BKN180,0.00,VWS V14.01,2013-06-05 00:15:00,
2013-06-04 20:21:00,76.2,67.3,29.99,West,269,0.0,0.0,74,0.00,,BKN180,0.00,VWS V14.01,2013-06-05 00:21:00,
2013-06-04 20:26:00,76.1,67.2,29.99,SE,136,0.0,0.0,74,0.00,,BKN180,0.00,VWS V14.01,2013-06-05 00:26:00,
2013-06-04 20:31:00,76.0,67.5,29.99,SE,139,0.0,0.0,75,0.00,,BKN180,0.00,VWS V14.01,2013-06-05 00:31:00,
2013-06-04 20:36:00,75.9,67.4,30.00,SE,140,0.0,0.0,75,0.00,,BKN180,0.00,VWS V14.01,2013-06-05 00:36:00,
2013-06-04 20:41:00,75.7,67.6,30.00,SE,140,0.0,0.0,76,0.00,,BKN180,0.00,VWS V14.01,2013-06-05 00:41:00,
2013-06-04 20:46:00,75.5,67.4,30.00,SW,214,0.0,0.0,76,0.00,,BKN180,0.00,VWS V14.01,2013-06-05 00:46:00,
2013-06-04 20:51:00,75.3,67.6,30.00,SSW,213,0.0,0.0,77,0.00,,BKN180,0.00,VWS V14.01,2013-06-05 00:51:00,
2013-06-04 20:56:00,75.1,67.4,30.01,SSW,213,0.0,0.0,77,0.00,,BKN180,0.00,VWS V14.01,2013-06-05 00:56:00,
2013-06-04 21:01:00,74.9,67.6,30.00,SSW,213,0.0,0.0,78,0.00,,SCT180,0.00,VWS V14.01,2013-06-05 01:01:00,
2013-06-04 21:06:00,74.7,67.4,30.00,SSE,161,0.0,0.0,78,0.00,,SCT180,0.00,VWS V14.01,2013-06-05 01:06:00,
2013-06-04 21:11:00,74.6,67.7,30.01,SSE,161,0.0,0.0,79,0.00,,SCT180,0.00,VWS V14.01,2013-06-05 01:11:00,
2013-06-04 21:16:00,74.4,67.5,30.01,SSE,161,0.0,0.0,79,0.00,,SCT180,0.00,VWS V14.01,2013-06-05 01:16:00,
2013-06-04 21:21:00,74.3,67.4,30.01,SSE,161,0.0,0.0,79,0.00,,SCT180,0.00,VWS V14.01,2013-06-05 01:21:00,
2013-06-04 21:26:00,74.1,67.2,30.01,SSE,161,0.0,0.0,79,0.00,,SCT180,0.00,VWS V14.01,2013-06-05 01:26:00,
2013-06-04 21:31:00,74.0,67.4,30.01,SSE,161,0.0,0.0,80,0.00,,SCT180,0.00,VWS V14.01,2013-06-05 01:31:00,
2013-06-04 21:36:00,73.8,67.6,30.01,SSE,161,0.0,0.0,81,0.00,,SCT180,0.00,VWS V14.01,2013-06-05 01:36:00,
2013-06-04 21:41:00,73.6,67.4,30.01,SSE,161,0.0,0.0,81,0.00,,SCT180,0.00,VWS V14.01,2013-06-05 01:41:00,
2013-06-04 21:46:00,73.5,67.3,30.01,SSE,161,0.0,0.0,81,0.00,,SCT180,0.00,VWS V14.01,2013-06-05 01:46:00,
2013-06-04 21:51:00,73.3,66.8,30.02,SSE,161,0.0,0.0,80,0.00,,SCT180,0.00,VWS V14.01,2013-06-05 01:51:00,
2013-06-04 21:56:00,73.3,67.1,30.02,SSE,150,0.0,0.0,81,0.00,,SCT180,0.00,VWS V14.01,2013-06-05 01:56:00,
2013-06-04 22:01:00,73.1,66.9,30.02,SSE,151,0.0,0.0,81,0.00,,FEW060,0.00,VWS V14.01,2013-06-05 02:01:00,
2013-06-04 22:06:00,73.0,66.8,30.02,SSE,151,0.0,0.0,81,0.00,,FEW060,0.00,VWS V14.01,2013-06-05 02:06:00,
2013-06-04 22:11:00,72.9,67.1,30.02,SSE,166,0.0,0.0,82,0.00,,FEW060,0.00,VWS V14.01,2013-06-05 02:11:00,
2013-06-04 22:16:00,72.8,67.0,30.02,SSE,161,0.0,0.0,82,0.00,,FEW060,0.00,VWS V14.01,2013-06-05 02:16:00,
2013-06-04 22:21:00,72.6,67.2,30.02,SSE,161,0.0,0.0,83,0.00,,FEW060,0.00,VWS V14.01,2013-06-05 02:21:00,
2013-06-04 22:27:00,72.3,66.8,30.02,SSE,161,0.0,0.0,83,0.00,,FEW060,0.00,VWS V14.01,2013-06-05 02:27:00,
2013-06-04 22:32:00,72.1,67.0,30.02,SSE,161,0.0,0.0,84,0.00,,FEW060,0.00,VWS V14.01,2013-06-05 02:32:00,
2013-06-04 22:37:00,72.0,66.6,30.02,SSE,161,0.0,0.0,83,0.00,,FEW060,0.00,VWS V14.01,2013-06-05 02:37:00,
2013-06-04 22:43:00,71.8,66.4,30.02,SSE,161,0.0,0.0,83,0.00,,FEW060,0.00,VWS V14.01,2013-06-05 02:43:00,
2013-06-04 22:48:00,71.7,66.6,30.02,WNW,294,0.0,0.0,84,0.00,,FEW060,0.00,VWS V14.01,2013-06-05 02:48:00,
2013-06-04 22:54:00,71.6,66.5,30.02,WNW,294,0.0,0.0,84,0.00,,FEW060,0.00,VWS V14.01,2013-06-05 02:54:00,
2013-06-04 22:59:00,71.4,66.0,30.02,WSW,258,0.0,0.0,83,0.00,,FEW060,0.00,VWS V14.01,2013-06-05 02:59:00,
2013-06-04 23:04:00,71.3,65.9,30.02,SE,144,0.0,0.0,83,0.00,,FEW042,0.00,VWS V14.01,2013-06-05 03:04:00,
2013-06-04 23:10:00,71.4,66.0,30.02,SE,144,0.0,0.0,83,0.00,,FEW042,0.00,VWS V14.01,2013-06-05 03:10:00,
2013-06-04 23:16:00,71.3,65.9,30.02,South,170,0.0,0.0,83,0.00,,FEW042,0.00,VWS V14.01,2013-06-05 03:16:00,
2013-06-04 23:21:00,71.3,65.9,30.02,SE,140,0.0,0.0,83,0.00,,FEW042,0.00,VWS V14.01,2013-06-05 03:21:00,
2013-06-04 23:26:00,71.3,65.9,30.02,ESE,123,0.0,0.0,83,0.00,,FEW042,0.00,VWS V14.01,2013-06-05 03:26:00,
2013-06-04 23:31:00,71.3,65.9,30.02,SSE,165,1.0,0.0,83,0.00,,FEW042,0.00,VWS V14.01,2013-06-05 03:31:00,
2013-06-04 23:37:00,71.2,65.4,30.02,South,169,0.0,0.0,82,0.00,,FEW042,0.00,VWS V14.01,2013-06-05 03:37:00,
2013-06-04 23:42:00,71.2,65.4,30.02,South,175,0.0,0.0,82,0.00,,FEW042,0.00,VWS V14.01,2013-06-05 03:42:00,
2013-06-04 23:48:00,71.2,65.8,30.03,SSW,208,0.0,0.0,83,0.00,,FEW042,0.00,VWS V14.01,2013-06-05 03:48:00,
2013-06-04 23:53:00,71.1,66.0,30.03,South,180,0.0,0.0,84,0.00,,FEW042,0.00,VWS V14.01,2013-06-05 03:53:00,
2013-06-04 23:59:00,71.0,65.6,30.03,SSW,198,1.0,0.0,83,0.00,,FEW042,0.00,VWS V14.01,2013-06-05 03:59:00,